Time,TemperatureF,DewpointF,PressureIn,WindDirection,WindDirectionDegrees,WindSpeedMPH,WindSpeedGustMPH,Humidity,HourlyPrecipIn,Conditions,Clouds,dailyrainin,SoftwareType,DateUTC
2013-05-10 00:13:00,54.6,54.0,29.93,North,5,0.0,0.0,96,0.00,,,0.00,weatherlink.com 1.10,2013-05-10 04:13:00,
2013-05-10 00:28:00,54.3,53.0,29.93,North,5,0.0,1.0,96,0.00,,,0.00,weatherlink.com 1.10,2013-05-10 04:28:00,
2013-05-10 00:43:00,54.1,53.0,29.93,North,5,0.0,0.0,97,0.00,,,0.00,weatherlink.com 1.10,2013-05-10 04:43:00,
2013-05-10 00:58:00,53.9,53.0,29.93,North,5,0.0,0.0,97,0.00,,,0.00,weatherlink.com 1.10,2013-05-10 04:58:00,
2013-05-10 01:13:00,53.9,53.0,29.93,North,5,0.0,0.0,97,0.00,,,0.00,weatherlink.com 1.10,2013-05-10 05:13:00,
2013-05-10 01:28:00,53.6,53.0,29.93,North,5,0.0,0.0,96,0.00,,,0.00,weatherlink.com 1.10,2013-05-10 05:28:00,
2013-05-10 01:43:00,53.4,53.0,29.93,North,5,0.0,0.0,97,0.00,,,0.00,weatherlink.com 1.10,2013-05-10 05:43:00,
2013-05-10 01:58:00,53.1,52.0,29.93,North,5,0.0,0.0,97,0.00,,,0.00,weatherlink.com 1.10,2013-05-10 05:58:00,
2013-05-10 02:13:00,52.7,52.0,29.93,North,5,0.0,0.0,96,0.00,,,0.00,weatherlink.com 1.10,2013-05-10 06:13:00,
2013-05-10 02:28:00,52.3,51.0,29.93,North,5,0.0,0.0,96,0.00,,,0.00,weatherlink.com 1.10,2013-05-10 06:28:00,
2013-05-10 02:43:00,51.8,51.0,29.93,North,5,0.0,0.0,96,0.00,,,0.00,weatherlink.com 1.10,2013-05-10 06:43:00,
2013-05-10 02:58:00,51.6,51.0,29.93,North,5,0.0,0.0,97,0.00,,,0.00,weatherlink.com 1.10,2013-05-10 06:58:00,
2013-05-10 03:13:00,51.4,51.0,29.93,North,5,0.0,0.0,97,0.00,,,0.00,weatherlink.com 1.10,2013-05-10 07:13:00,
2013-05-10 03:28:00,51.3,51.0,29.93,North,5,0.0,0.0,97,0.00,,,0.00,weatherlink.com 1.10,2013-05-10 07:28:00,
2013-05-10 03:43:00,50.9,50.0,29.93,North,5,0.0,0.0,97,0.00,,,0.00,weatherlink.com 1.10,2013-05-10 07:43:00,
2013-05-10 03:58:00,50.6,50.0,29.93,North,5,0.0,0.0,97,0.00,,,0.00,weatherlink.com 1.10,2013-05-10 07:58:00,
2013-05-10 04:13:00,50.4,50.0,29.94,North,5,0.0,0.0,97,0.00,,,0.00,weatherlink.com 1.10,2013-05-10 08:13:00,
2013-05-10 04:28:00,50.2,49.0,29.93,North,5,0.0,0.0,97,0.00,,,0.00,weatherlink.com 1.10,2013-05-10 08:28:00,
2013-05-10 04:43:00,50.0,49.0,29.93,North,5,0.0,0.0,97,0.00,,,0.00,weatherlink.com 1.10,2013-05-10 08:43:00,
2013-05-10 04:58:00,49.6,49.0,29.94,North,5,0.0,0.0,97,0.00,,,0.00,weatherlink.com 1.10,2013-05-10 08:58:00,
2013-05-10 05:13:00,49.5,49.0,29.93,North,5,0.0,0.0,97,0.00,,,0.00,weatherlink.com 1.10,2013-05-10 09:13:00,
2013-05-10 05:28:00,49.5,49.0,29.93,North,5,0.0,0.0,97,0.00,,,0.00,weatherlink.com 1.10,2013-05-10 09:28:00,
2013-05-10 05:43:00,49.4,49.0,29.93,North,5,0.0,0.0,97,0.00,,,0.00,weatherlink.com 1.10,2013-05-10 09:43:00,
2013-05-10 05:58:00,49.2,48.0,29.94,North,5,0.0,0.0,97,0.00,,,0.00,weatherlink.com 1.10,2013-05-10 09:58:00,
2013-05-10 06:14:00,49.3,49.0,29.94,North,5,0.0,0.0,98,0.00,,,0.00,weatherlink.com 1.10,2013-05-10 10:14:00,
2013-05-10 06:29:00,49.7,49.0,29.93,North,5,0.0,0.0,98,0.00,,,0.00,weatherlink.com 1.10,2013-05-10 10:29:00,
2013-05-10 06:44:00,50.6,50.0,29.94,North,5,0.0,0.0,98,0.00,,,0.00,weatherlink.com 1.10,2013-05-10 10:44:00,
2013-05-10 06:59:00,51.1,51.0,29.94,North,5,0.0,0.0,98,0.00,,,0.00,weatherlink.com 1.10,2013-05-10 10:59:00,
2013-05-10 07:14:00,51.7,51.0,29.94,North,5,0.0,0.0,98,0.00,,,0.00,weatherlink.com 1.10,2013-05-10 11:14:00,
2013-05-10 07:29:00,52.2,52.0,29.94,North,5,0.0,0.0,98,0.00,,,0.00,weatherlink.com 1.10,2013-05-10 11:29:00,
2013-05-10 07:44:00,53.9,53.0,29.94,NE,34,1.0,2.0,98,0.00,,,0.00,weatherlink.com 1.10,2013-05-10 11:44:00,
2013-05-10 07:59:00,55.8,55.0,29.93,NE,40,0.0,1.0,98,0.00,,,0.00,weatherlink.com 1.10,2013-05-10 11:59:00,
2013-05-10 08:14:00,57.9,56.0,29.94,NE,53,0.0,1.0,94,0.00,,,0.00,weatherlink.com 1.10,2013-05-10 12:14:00,
2013-05-10 08:29:00,60.0,59.0,29.94,NE,54,0.0,0.0,95,0.00,,,0.00,weatherlink.com 1.10,2013-05-10 12:29:00,
2013-05-10 08:44:00,61.0,58.0,29.94,SE,130,0.0,3.0,90,0.00,,,0.00,weatherlink.com 1.10,2013-05-10 12:44:00,
2013-05-10 08:59:00,62.5,60.0,29.94,East,97,0.0,1.0,91,0.00,,,0.00,weatherlink.com 1.10,2013-05-10 12:59:00,
2013-05-10 09:14:00,63.6,60.0,29.94,East,86,0.0,2.0,87,0.00,,,0.00,weatherlink.com 1.10,2013-05-10 13:14:00,
2013-05-10 09:29:00,64.3,59.0,29.94,SE,128,1.0,2.0,84,0.00,,,0.00,weatherlink.com 1.10,2013-05-10 13:29:00,
2013-05-10 09:44:00,66.4,62.0,29.94,ESE,107,0.0,2.0,84,0.00,,,0.00,weatherlink.com 1.10,2013-05-10 13:44:00,
2013-05-10 09:59:00,67.9,60.0,29.94,South,177,0.0,3.0,77,0.00,,,0.00,weatherlink.com 1.10,2013-05-10 13:59:00,
2013-05-10 10:14:00,68.4,60.0,29.94,ESE,110,0.0,3.0,74,0.00,,,0.00,weatherlink.com 1.10,2013-05-10 14:14:00,
2013-05-10 10:29:00,70.3,61.0,29.93,SE,138,0.0,3.0,73,0.00,,,0.00,weatherlink.com 1.10,2013-05-10 14:29:00,
2013-05-10 10:44:00,72.7,62.0,29.93,NW,308,2.0,4.0,70,0.00,,,0.00,weatherlink.com 1.10,2013-05-10 14:44:00,
2013-05-10 11:00:00,74.6,61.0,29.92,ENE,77,1.0,3.0,63,0.00,,,0.00,weatherlink.com 1.10,2013-05-10 15:00:00,
2013-05-10 11:16:00,75.0,62.0,29.92,ESE,112,2.0,6.0,64,0.00,,,0.00,weatherlink.com 1.10,2013-05-10 15:16:00,
2013-05-10 11:30:00,75.4,62.0,29.92,ENE,67,1.0,5.0,63,0.00,,,0.00,weatherlink.com 1.10,2013-05-10 15:30:00,
2013-05-10 11:45:00,76.1,62.0,29.91,SE,137,0.0,5.0,62,0.00,,,0.00,weatherlink.com 1.10,2013-05-10 15:45:00,
2013-05-10 12:00:00,76.4,59.0,29.90,East,96,0.0,5.0,56,0.00,,,0.00,weatherlink.com 1.10,2013-05-10 16:00:00,
2013-05-10 12:15:00,76.6,60.0,29.90,East,89,0.0,4.0,57,0.00,,,0.00,weatherlink.com 1.10,2013-05-10 16:15:00,
2013-05-10 12:30:00,77.4,59.0,29.89,East,79,0.0,4.0,54,0.00,,,0.00,weatherlink.com 1.10,2013-05-10 16:30:00,
2013-05-10 12:45:00,79.9,60.0,29.89,NE,56,0.0,5.0,50,0.00,,,0.00,weatherlink.com 1.10,2013-05-10 16:45:00,
2013-05-10 13:00:00,80.2,60.0,29.88,SW,221,0.0,7.0,51,0.00,,,0.00,weatherlink.com 1.10,2013-05-10 17:00:00,
2013-05-10 13:15:00,81.1,60.0,29.87,ENE,63,2.0,6.0,49,0.00,,,0.00,weatherlink.com 1.10,2013-05-10 17:15:00,
2013-05-10 13:30:00,81.5,58.0,29.87,ESE,108,1.0,5.0,45,0.00,,,0.00,weatherlink.com 1.10,2013-05-10 17:30:00,
2013-05-10 13:45:00,82.1,57.0,29.87,NNW,330,0.0,4.0,43,0.00,,,0.00,weatherlink.com 1.10,2013-05-10 17:45:00,
2013-05-10 14:00:00,81.8,58.0,29.86,NNE,33,0.0,3.0,45,0.00,,,0.00,weatherlink.com 1.10,2013-05-10 18:00:00,
2013-05-10 14:15:00,83.0,58.0,29.86,SSW,196,1.0,6.0,42,0.00,,,0.00,weatherlink.com 1.10,2013-05-10 18:15:00,
2013-05-10 14:30:00,83.2,58.0,29.85,NW,309,1.0,6.0,43,0.00,,,0.00,weatherlink.com 1.10,2013-05-10 18:30:00,
2013-05-10 14:45:00,83.3,60.0,29.84,NW,321,0.0,9.0,45,0.00,,,0.00,weatherlink.com 1.10,2013-05-10 18:45:00,
2013-05-10 15:00:00,84.2,61.0,29.84,SSW,203,1.0,3.0,45,0.00,,,0.00,weatherlink.com 1.10,2013-05-10 19:00:00,
2013-05-10 15:15:00,84.0,59.0,29.82,ENE,68,1.0,4.0,43,0.00,,,0.00,weatherlink.com 1.10,2013-05-10 19:15:00,
2013-05-10 15:30:00,83.6,57.0,29.81,ENE,71,2.0,7.0,41,0.00,,,0.00,weatherlink.com 1.10,2013-05-10 19:30:00,
2013-05-10 16:00:00,81.2,60.0,29.80,ESE,109,2.0,4.0,48,0.00,,,0.00,weatherlink.com 1.10,2013-05-10 20:00:00,
2013-05-10 16:15:00,80.2,59.0,29.80,NE,39,3.0,3.0,49,0.00,,,0.00,weatherlink.com 1.10,2013-05-10 20:15:00,
2013-05-10 16:30:00,79.6,59.0,29.80,ENE,63,0.0,2.0,50,0.00,,,0.00,weatherlink.com 1.10,2013-05-10 20:30:00,
2013-05-10 16:45:00,78.1,62.0,29.80,East,88,1.0,5.0,58,0.02,,,0.02,weatherlink.com 1.10,2013-05-10 20:45:00,
2013-05-10 17:01:00,75.3,65.0,29.81,WNW,282,6.0,6.0,71,0.02,,,0.02,weatherlink.com 1.10,2013-05-10 21:01:00,
2013-05-10 17:15:00,72.7,62.0,29.80,WNW,299,0.0,10.0,68,0.02,,,0.02,weatherlink.com 1.10,2013-05-10 21:15:00,
2013-05-10 17:30:00,72.3,63.0,29.80,West,279,0.0,2.0,72,0.02,,,0.02,weatherlink.com 1.10,2013-05-10 21:30:00,
2013-05-10 17:45:00,71.4,62.0,29.82,West,271,4.0,17.0,73,0.00,,,0.02,weatherlink.com 1.10,2013-05-10 21:45:00,
2013-05-10 18:00:00,67.4,62.0,29.80,SE,140,0.0,19.0,82,0.11,,,0.13,weatherlink.com 1.10,2013-05-10 22:00:00,
2013-05-10 18:15:00,64.9,62.0,29.81,East,101,1.0,7.0,91,0.12,,,0.14,weatherlink.com 1.10,2013-05-10 22:15:00,
2013-05-10 18:30:00,65.0,62.0,29.80,SE,128,2.0,3.0,90,0.12,,,0.14,weatherlink.com 1.10,2013-05-10 22:30:00,
2013-05-10 18:45:00,64.9,62.0,29.79,East,92,1.0,5.0,91,0.12,,,0.14,weatherlink.com 1.10,2013-05-10 22:45:00,
2013-05-10 19:00:00,64.9,63.0,29.79,ESE,119,0.0,1.0,92,0.00,,,0.14,weatherlink.com 1.10,2013-05-10 23:00:00,
2013-05-10 19:15:00,64.7,63.0,29.78,West,276,2.0,2.0,93,0.00,,,0.14,weatherlink.com 1.10,2013-05-10 23:15:00,
2013-05-10 19:30:00,64.7,62.0,29.86,WNW,286,6.0,20.0,89,0.05,,,0.19,weatherlink.com 1.10,2013-05-10 23:30:00,
2013-05-10 19:45:00,63.9,61.0,29.85,WNW,294,1.0,10.0,91,0.29,,,0.43,weatherlink.com 1.10,2013-05-10 23:45:00,
2013-05-10 20:00:00,63.2,61.0,29.86,WNW,292,0.0,3.0,93,0.34,,,0.48,weatherlink.com 1.10,2013-05-11 00:00:00,
2013-05-10 20:15:00,63.0,62.0,29.86,WNW,292,0.0,0.0,95,0.35,,,0.49,weatherlink.com 1.10,2013-05-11 00:15:00,
2013-05-10 20:30:00,62.8,61.0,29.85,ESE,122,0.0,3.0,95,0.34,,,0.54,weatherlink.com 1.10,2013-05-11 00:30:00,
2013-05-10 20:45:00,62.6,61.0,29.86,East,85,0.0,1.0,95,0.10,,,0.54,weatherlink.com 1.10,2013-05-11 00:45:00,
2013-05-10 21:00:00,62.4,61.0,29.86,East,85,0.0,1.0,96,0.06,,,0.54,weatherlink.com 1.10,2013-05-11 01:00:00,
2013-05-10 21:15:00,62.3,61.0,29.86,East,85,0.0,0.0,96,0.06,,,0.55,weatherlink.com 1.10,2013-05-11 01:15:00,
2013-05-10 21:30:00,62.4,61.0,29.86,East,85,0.0,1.0,96,0.02,,,0.56,weatherlink.com 1.10,2013-05-11 01:30:00,
2013-05-10 21:45:00,62.4,61.0,29.86,East,85,0.0,0.0,96,0.02,,,0.56,weatherlink.com 1.10,2013-05-11 01:45:00,
2013-05-10 22:00:00,62.3,61.0,29.85,East,85,0.0,0.0,96,0.03,,,0.57,weatherlink.com 1.10,2013-05-11 02:00:00,
2013-05-10 22:15:00,62.3,62.0,29.85,East,85,0.0,0.0,97,0.03,,,0.58,weatherlink.com 1.10,2013-05-11 02:15:00,
2013-05-10 22:30:00,62.1,61.0,29.84,East,85,0.0,0.0,97,0.04,,,0.60,weatherlink.com 1.10,2013-05-11 02:30:00,
2013-05-10 22:45:00,62.1,61.0,29.84,NNW,345,0.0,0.0,97,0.07,,,0.63,weatherlink.com 1.10,2013-05-11 02:45:00,
2013-05-10 23:01:00,61.9,61.0,29.82,SE,134,3.0,4.0,97,0.06,,,0.63,weatherlink.com 1.10,2013-05-11 03:01:00,
2013-05-10 23:15:00,61.8,61.0,29.80,SE,138,2.0,7.0,97,0.06,,,0.64,weatherlink.com 1.10,2013-05-11 03:15:00,
2013-05-10 23:30:00,61.7,61.0,29.79,SE,130,0.0,4.0,97,0.04,,,0.64,weatherlink.com 1.10,2013-05-11 03:30:00,
2013-05-10 23:45:00,61.7,61.0,29.79,SE,128,0.0,1.0,97,0.01,,,0.64,weatherlink.com 1.10,2013-05-11 03:45:00,